Pickwick Lake Weather Center

Moon Phase Calendar



Pickwick Lake Water Level
Online Cameras

 


      

Current Conditions in Cherokee
7/19/2024 7:21:51 PM

80°F
Feels Like 80
Clouds
Humidity
82%
Pressure
30"
Wind
5.7 mph (ESE)
Dew Point
74°F
UV Index
0/10 (Low)
Visibility
6 mi

Hourly Forecast

Date & Time Fri, Jul 19
7:00 PM
Fri, Jul 19
8:00 PM
Fri, Jul 19
9:00 PM
Fri, Jul 19
10:00 PM
Fri, Jul 19
11:00 PM
Sat, Jul 20
12:00 AM
Sat, Jul 20
1:00 AM
Sat, Jul 20
2:00 AM
Sat, Jul 20
3:00 AM
Sat, Jul 20
4:00 AM
Sat, Jul 20
5:00 AM
Sat, Jul 20
6:00 AM
Sat, Jul 20
7:00 AM
Sat, Jul 20
8:00 AM
Sat, Jul 20
9:00 AM
Sat, Jul 20
10:00 AM
Sat, Jul 20
11:00 AM
Sat, Jul 20
12:00 PM
Sat, Jul 20
1:00 PM
Sat, Jul 20
2:00 PM
Sat, Jul 20
3:00 PM
Sat, Jul 20
4:00 PM
Sat, Jul 20
5:00 PM
Sat, Jul 20
6:00 PM
Sat, Jul 20
7:00 PM
Sat, Jul 20
8:00 PM
Sat, Jul 20
9:00 PM
Sat, Jul 20
10:00 PM
Sat, Jul 20
11:00 PM
Sun, Jul 21
12:00 AM
Sun, Jul 21
1:00 AM
Sun, Jul 21
2:00 AM
Sun, Jul 21
3:00 AM
Sun, Jul 21
4:00 AM
Sun, Jul 21
5:00 AM
Sun, Jul 21
6:00 AM
Sun, Jul 21
7:00 AM
Sun, Jul 21
8:00 AM
Sun, Jul 21
9:00 AM
Sun, Jul 21
10:00 AM
Sun, Jul 21
11:00 AM
Sun, Jul 21
12:00 PM
Sun, Jul 21
1:00 PM
Sun, Jul 21
2:00 PM
Sun, Jul 21
3:00 PM
Sun, Jul 21
4:00 PM
Sun, Jul 21
5:00 PM
Sun, Jul 21
6:00 PM
Condition
Rain

Clouds

Clouds

Rain

Rain

Rain

Clouds

Clouds

Clouds

Clouds

Clouds

Clouds

Clouds

Clouds

Rain

Rain

Rain

Rain

Rain

Rain

Rain

Clouds

Rain

Rain

Rain

Clouds

Clouds

Clouds

Clouds

Clouds

Clouds

Rain

Clouds

Clouds

Clouds

Clouds

Clouds

Clouds

Clouds

Clouds

Rain

Clouds

Rain

Clouds

Clouds

Clouds

Clouds

Clouds
Temperature 80°F78°F76°F74°F72°F69°F70°F70°F69°F69°F69°F68°F71°F74°F76°F79°F81°F85°F87°F86°F88°F87°F83°F80°F79°F77°F75°F74°F73°F73°F72°F72°F73°F72°F72°F72°F73°F75°F76°F79°F84°F89°F91°F90°F85°F85°F88°F85°F
Feels Like 80°F80°F78°F75°F73°F71°F71°F71°F71°F70°F70°F69°F72°F75°F78°F79°F86°F89°F91°F91°F93°F92°F88°F80°F79°F78°F76°F75°F74°F75°F74°F73°F74°F74°F74°F74°F74°F76°F77°F79°F89°F93°F95°F92°F88°F88°F92°F89°F
Cloudiness 98%98%99%99%100%100%100%95%99%95%92%84%73%11%7%5%3%4%8%56%71%69%70%76%80%82%64%56%58%69%72%94%98%99%99%99%99%100%100%100%99%92%94%95%100%100%99%99%
Visibility 6 mi6 mi6 mi6 mi5 mi6 mi6 mi6 mi6 mi6 mi6 mi6 mi6 mi6 mi6 mi6 mi6 mi6 mi6 mi6 mi6 mi6 mi6 mi6 mi6 mi6 mi6 mi6 mi6 mi6 mi6 mi6 mi6 mi6 mi6 mi6 mi6 mi6 mi6 mi6 mi6 mi6 mi6 mi6 mi6 mi6 mi6 mi6 mi
Precipitation 71%80%80%100%100%100%80%0%0%0%0%4%2%0%60%97%100%100%100%100%100%80%100%100%100%1%0%0%0%0%0%21%43%0%0%0%0%28%25%21%42%32%36%19%15%5%0%0%
Humidity 82%85%88%91%95%99%99%98%98%98%98%97%96%91%86%80%72%60%54%59%54%54%68%78%81%84%88%90%91%91%92%93%92%93%93%92%91%90%88%79%65%51%44%43%59%59%50%61%
Dew Point 74°F73°F72°F71°F70°F68°F69°F69°F68°F68°F68°F67°F69°F70°F71°F72°F71°F69°F69°F70°F69°F69°F71°F72°F72°F71°F70°F70°F70°F70°F69°F69°F70°F70°F69°F69°F70°F71°F71°F71°F70°F68°F66°F64°F69°F68°F67°F69°F
Pressure 30"30"30"30"30"30"30"30"30"30"30"30"30.03"30.03"30.03"30.03"30.03"30.03"30"30"29.97"29.97"29.97"29.97"30"30"30"30.03"30"30"30"30"30"30"30"30"30.03"30.03"30.03"30.03"30.03"30"30"29.97"29.97"29.97"29.94"29.97"
Wind Speed 5.7 mph4.1 mph3 mph1.8 mph2.4 mph3 mph3 mph3.5 mph3 mph3.4 mph3.4 mph3 mph2.4 mph3.3 mph3.2 mph3.5 mph4.4 mph4.6 mph4.8 mph5.6 mph3.4 mph5.2 mph5.4 mph3.8 mph2.9 mph1.7 mph0.6 mph2 mph1.7 mph3 mph2.8 mph2.8 mph2.8 mph2.7 mph2.7 mph1.7 mph0.7 mph0.7 mph0.3 mph2.2 mph3.7 mph3.4 mph3.1 mph2 mph3.8 mph7.2 mph6.2 mph3.4 mph
Wind
Direction
109°
ESE
116°
ESE
131°
SE
99°
E
107°
ESE
116°
ESE
100°
E
107°
ESE
121°
ESE
143°
SE
149°
SSE
150°
SSE
150°
SSE
173°
S
193°
SSW
216°
SW
217°
SW
217°
SW
222°
SW
256°
WSW
217°
SW
203°
SSW
225°
SW
262°
W
276°
W
273°
W
13°
NNE
15°
NNE
59°
ENE
53°
NE
64°
ENE
104°
ESE
112°
ESE
117°
ESE
121°
ESE
114°
ESE

N
316°
NW
270°
W
306°
NW
294°
WNW
283°
WNW
253°
WSW
228°
SW
77°
ENE
62°
ENE
79°
E
122°
ESE

Daily Forecast

Date High Low Precip. Humidity
Today
Jul 19

Rain
83 °F
66 °F
100%
72%
Saturday
Jul 20

Rain
88 °F
68 °F
100%
60%
Sunday
Jul 21

Rain
91 °F
72 °F
87%
51%
Monday
Jul 22

Rain
84 °F
69 °F
66%
77%
Tuesday
Jul 23

Rain
90 °F
71 °F
100%
46%
Wednesday
Jul 24

Rain
82 °F
72 °F
100%
76%
Thursday
Jul 25

Rain
80 °F
70 °F
100%
92%
Friday
Jul 26

Clouds
89 °F
69 °F
0%
53%
Saturday
Jul 27

Rain
94 °F
70 °F
37%
44%
Sunday
Jul 28

Rain
95 °F
72 °F
100%
42%
Monday
Jul 29

Rain
95 °F
72 °F
80%
44%
Tuesday
Jul 30

Rain
94 °F
74 °F
20%
44%
Wednesday
Jul 31

Clouds
94 °F
74 °F
0%
45%
Thursday
Aug 1

Rain
96 °F
76 °F
20%
40%
Friday
Aug 2

Rain
97 °F
76 °F
78%
41%
Saturday
Aug 3

Rain
99 °F
75 °F
100%
36%

Temperature 8-14 Day Outlook



Precipitation 8-14 Day Outlook






About Us
Contact Us
Site Map
Search Site
Advertise With Us
   
www.PickwickLake.info
THE PICKWICK LAKE WEBSITE

Copyright 2024, Lakes Online
Privacy    |    Legal